DW2150 Weather Reports


Display with metric or nautical units.
time (UTC)temp
F
wind
direction
speed
MPH
gust
MPH
rain 1hr
in
rain 24hr
in
rain mn
in
humidity
%
barometer
mb
20260505194002 81 183 0.0 3.0 0.00 0.00 0.00 88 1009.5
20260505193459 81 227 0.0 3.0 0.00 0.00 0.00 88 1009.5
20260505192955 81 125 1.0 3.0 0.00 0.00 0.00 88 1009.5
20260505192452 81 173 1.0 3.0 0.00 0.00 0.00 88 1009.5
20260505191950 81 161 1.0 2.0 0.00 0.00 0.00 89 1009.5
20260505191447 80 161 1.0 3.0 0.00 0.00 0.00 89 1009.5
20260505190943 80 168 1.0 3.0 0.00 0.00 0.00 89 1009.8
20260505190409 79 171 1.0 3.0 0.00 0.00 0.00 89 1009.8
20260505185907 79 126 2.0 3.0 0.00 0.00 0.00 89 1009.8
20260505185332 79 200 1.0 3.0 0.00 0.00 0.00 90 1009.8
20260505184758 79 355 1.0 2.0 0.00 0.00 0.00 90 1009.8
20260505184224 79 156 1.0 2.0 0.00 0.00 0.00 89 1009.8
20260505183650 79 119 0.0 2.0 0.00 0.00 0.00 90 1010.2
20260505183146 79 23 1.0 2.0 0.00 0.00 0.00 90 1009.8
20260505182643 79 33 1.0 2.0 0.00 0.00 0.00 90 1010.2
20260505182108 79 105 0.0 0.0 0.00 0.00 0.00 90 1010.2
20260505181605 79 155 0.0 3.0 0.00 0.00 0.00 90 1010.2
20260505181102 79 155 0.0 3.0 0.00 0.00 0.00 89 1010.2
20260505180558 79 155 0.0 3.0 0.00 0.00 0.00 89 1010.2
20260505180023 79 244 1.0 3.0 0.00 0.00 0.00 89 1010.2
20260505175519 79 211 1.0 2.0 0.00 0.00 0.00 90 1010.2
20260505174843 79 288 1.0 2.0 0.00 0.00 0.00 90 1010.2
20260505174339 79 79 1.0 2.0 0.00 0.00 0.00 90 1010.2
20260505173836 79 211 0.0 2.0 0.00 0.00 0.00 91 1010.2
20260505173333 78 211 0.0 2.0 0.00 0.00 0.00 90 1010.2
20260505172830 78 120 1.0 2.0 0.00 0.00 0.00 91 1010.5
20260505172327 78 126 0.0 4.0 0.00 0.00 0.00 90 1010.5
20260505171823 78 127 1.0 4.0 0.00 0.00 0.00 91 1010.5
20260505171320 78 128 1.0 4.0 0.00 0.00 0.00 91 1010.5
20260505170817 78 22 1.0 4.0 0.00 0.00 0.00 90 1010.5
20260505170258 78 318 2.0 2.0 0.00 0.00 0.00 90 1010.5
20260505165755 78 184 1.0 2.0 0.00 0.00 0.00 90 1010.5
20260505165252 78 138 1.0 2.0 0.00 0.00 0.00 90 1010.5
20260505164718 78 138 1.0 2.0 0.00 0.00 0.00 90 1010.5
20260505164143 78 107 1.0 2.0 0.00 0.00 0.00 90 1010.2
20260505163640 78 135 0.0 2.0 0.00 0.00 0.00 89 1010.5
20260505163136 78 135 1.0 4.0 0.00 0.00 0.00 90 1010.5
20260505162602 78 134 1.0 4.0 0.00 0.00 0.00 90 1010.5
20260505162058 78 163 1.0 4.0 0.00 0.00 0.00 90 1010.5
20260505161452 78 152 1.0 4.0 0.00 0.00 0.00 90 1010.2
20260505160948 78 161 0.0 3.0 0.00 0.00 0.00 90 1010.2
20260505160445 78 163 1.0 3.0 0.00 0.00 0.00 90 1010.2
20260505153350 78 96 1.0 2.0 0.00 0.00 0.00 90 1010.2
20260505152847 78 94 1.0 3.0 0.00 0.00 0.00 89 1010.2
20260505152343 78 355 1.0 3.0 0.00 0.00 0.00 90 1009.8
20260505151839 78 84 1.0 3.0 0.00 0.00 0.00 91 1009.8
20260505151336 77 130 2.0 3.0 0.00 0.00 0.00 91 1009.8
20260505150832 77 213 1.0 3.0 0.00 0.00 0.00 92 1009.8
20260505150327 77 177 1.0 2.0 0.00 0.00 0.00 92 1009.8
20260505140508 75 208 1.0 2.0 0.00 0.00 0.00 91 1010.2
20260505130145 74 42 1.0 2.0 0.00 0.00 0.00 93 1009.8
20260505124635 74 80 1.0 1.0 0.00 0.00 0.00 92 1009.5
20260505123959 74 74 1.0 1.0 0.00 0.00 0.00 92 1009.5
20260505123455 74 74 1.0 1.0 0.00 0.00 0.00 92 1009.5
20260505122934 74 33 1.0 1.0 0.00 0.00 0.00 92 1009.5
20260505122430 73 31 0.0 1.0 0.00 0.00 0.00 92 1009.5
20260505121927 73 32 1.0 1.0 0.00 0.00 0.00 92 1009.5
20260505121353 73 32 0.0 1.0 0.00 0.00 0.00 92 1009.5
20260505120800 73 32 0.0 1.0 0.00 0.00 0.00 92 1009.5
20260505120257 73 32 0.0 1.0 0.00 0.00 0.00 92 1009.8
20260505115754 73 32 0.0 1.0 0.00 0.00 0.00 92 1009.5
20260505115220 73 32 0.0 1.0 0.00 0.00 0.00 92 1009.5
20260505114659 73 85 1.0 1.0 0.00 0.00 0.00 92 1009.5
20260505114156 73 120 1.0 1.0 0.00 0.00 0.00 92 1009.5
20260505113634 73 120 0.0 1.0 0.00 0.00 0.00 92 1009.5
20260505113132 73 120 1.0 1.0 0.00 0.00 0.00 92 1009.1
20260505112627 73 120 1.0 1.0 0.00 0.00 0.00 92 1009.5
20260505112123 73 120 1.0 1.0 0.00 0.00 0.00 92 1009.5
20260505111549 73 120 0.0 1.0 0.00 0.00 0.00 92 1009.5
20260505110949 73 120 0.0 1.0 0.00 0.00 0.00 92 1009.8
20260505110445 73 121 1.0 1.0 0.00 0.00 0.00 92 1009.5
20260505102220 73 97 0.0 1.0 0.00 0.00 0.00 92 1009.5
20260505101645 73 97 0.0 1.0 0.00 0.00 0.00 92 1009.5
20260505101141 73 97 0.0 1.0 0.00 0.00 0.00 91 1009.5
20260505100638 73 55 0.0 0.0 0.00 0.00 0.00 91 1009.1
20260505100115 73 55 0.0 0.0 0.00 0.00 0.00 91 1009.5
20260505095612 73 55 0.0 1.0 0.00 0.00 0.00 91 1009.5
20260505094935 73 55 0.0 1.0 0.00 0.00 0.00 91 1009.5
20260505094413 73 55 0.0 1.0 0.00 0.00 0.00 91 1009.5
20260505093839 73 55 0.0 1.0 0.00 0.00 0.00 91 1009.8
20260505093335 73 55 0.0 1.0 0.00 0.00 0.00 91 1009.8
20260505092833 73 55 0.0 1.0 0.00 0.00 0.00 91 1009.5
20260505092330 73 55 0.0 1.0 0.00 0.00 0.00 91 1009.5
20260505091826 73 55 0.0 1.0 0.00 0.00 0.00 91 1009.5
20260505091323 73 304 0.0 1.0 0.00 0.00 0.00 91 1009.8
20260505090820 73 281 0.0 1.0 0.00 0.00 0.00 91 1009.8
20260505090317 73 281 0.0 1.0 0.00 0.00 0.00 91 1009.8
20260505085814 73 281 0.0 1.0 0.00 0.00 0.00 91 1009.8
20260505085311 73 281 0.0 1.0 0.00 0.00 0.00 91 1009.8
20260505084808 73 281 0.0 1.0 0.00 0.00 0.00 91 1009.5
20260505084305 73 281 0.0 1.0 0.00 0.00 0.00 91 1009.5
20260505083802 73 281 0.0 1.0 0.00 0.00 0.00 91 1009.5
20260505083258 73 281 1.0 1.0 0.00 0.00 0.00 91 1009.8
20260505082756 73 281 1.0 1.0 0.00 0.00 0.00 91 1009.5
20260505082253 73 281 0.0 1.0 0.00 0.00 0.00 91 1009.8
20260505081749 73 281 0.0 1.0 0.00 0.00 0.00 90 1009.8
20260505081246 73 281 1.0 1.0 0.00 0.00 0.00 90 1009.8
20260505080743 73 281 0.0 1.0 0.00 0.00 0.00 90 1009.8
20260505080239 73 281 1.0 1.0 0.00 0.00 0.00 90 1009.8
20260505075736 72 282 0.0 1.0 0.00 0.00 0.00 90 1009.8
20260505075234 72 282 0.0 1.0 0.00 0.00 0.00 90 1009.8
20260505074731 72 282 1.0 1.0 0.00 0.00 0.00 90 1010.2
20260505074228 72 282 0.0 1.0 0.00 0.00 0.00 90 1009.8
20260505073725 72 281 1.0 2.0 0.00 0.00 0.00 90 1009.8
20260505073222 72 282 1.0 2.0 0.00 0.00 0.00 90 1010.2
20260505072718 72 282 0.0 2.0 0.00 0.00 0.00 91 1010.2
20260505072144 72 53 0.0 2.0 0.00 0.00 0.00 90 1010.2
20260505071642 72 196 1.0 2.0 0.00 0.00 0.00 91 1010.2
20260505071107 72 196 1.0 1.0 0.00 0.00 0.00 91 1010.2
20260505070604 71 196 0.0 1.0 0.00 0.00 0.00 91 1010.2
20260505070042 71 196 0.0 1.0 0.00 0.00 0.00 91 1010.5
20260505065539 71 196 0.0 1.0 0.00 0.00 0.00 91 1010.5
20260505065037 71 46 0.0 0.0 0.00 0.00 0.00 91 1010.5
20260505064534 71 46 0.0 0.0 0.00 0.00 0.00 91 1010.8
20260505064031 71 46 0.0 1.0 0.00 0.00 0.00 90 1010.8
20260505063528 71 46 0.0 1.0 0.00 0.00 0.00 90 1010.8
20260505063025 71 46 0.0 1.0 0.00 0.00 0.00 90 1010.8
20260505062420 71 46 1.0 1.0 0.00 0.00 0.00 90 1010.8
20260505061917 71 18 0.0 0.0 0.00 0.00 0.00 90 1010.8
20260505061414 71 18 0.0 0.0 0.00 0.00 0.00 90 1011.2
20260505060852 71 18 0.0 0.0 0.00 0.00 0.00 90 1011.2
20260505060349 71 18 0.0 0.0 0.00 0.00 0.00 90 1010.8
20260505055846 71 18 0.0 0.0 0.00 0.00 0.00 90 1011.2
20260505055343 71 18 0.0 0.0 0.00 0.00 0.00 90 1011.2
20260505054839 71 18 0.0 0.0 0.00 0.00 0.00 90 1011.2
20260505054247 71 18 0.0 0.0 0.00 0.00 0.00 90 1011.2
20260505053744 71 30 0.0 0.0 0.00 0.00 0.00 90 1011.2
20260505053240 71 346 0.0 0.0 0.00 0.00 0.00 90 1011.2
20260505052737 71 346 0.0 0.0 0.00 0.00 0.00 90 1011.2
20260505052132 71 346 0.0 0.0 0.00 0.00 0.00 90 1011.2
20260505051611 71 346 0.0 0.0 0.00 0.00 0.00 90 1011.2
20260505051107 71 346 0.0 0.0 0.00 0.00 0.00 90 1011.2
20260505050558 71 346 0.0 0.0 0.00 0.00 0.00 90 1011.2
20260505041438 70 346 0.0 0.0 0.00 0.00 0.00 89 1011.5
20260505040935 70 346 0.0 0.0 0.00 0.00 0.00 89 1011.5
20260505040431 70 346 0.0 0.0 0.00 0.00 0.00 89 1011.9
20260505035928 70 346 0.0 0.0 0.00 0.00 0.00 89 1011.9
20260505035354 70 346 0.0 0.0 0.00 0.00 0.00 89 1011.9
20260505034820 70 346 0.0 0.0 0.00 0.00 0.00 88 1011.9
20260505034317 71 346 0.0 1.0 0.00 0.00 0.00 88 1011.9
20260505033814 71 346 0.0 1.0 0.00 0.00 0.00 88 1011.9
20260505033311 71 346 0.0 1.0 0.00 0.00 0.00 88 1011.9
20260505032808 71 346 0.0 1.0 0.00 0.00 0.00 88 1011.9
20260505032305 71 346 0.0 0.0 0.00 0.00 0.00 87 1011.9
20260505031731 71 346 0.0 0.0 0.00 0.00 0.00 87 1011.9
20260505031228 71 346 0.0 0.0 0.00 0.00 0.00 87 1011.9
20260505030725 71 346 0.0 1.0 0.00 0.00 0.00 87 1011.9
20260505030222 71 346 0.0 1.0 0.00 0.00 0.00 87 1011.9
20260505025719 71 346 0.0 2.0 0.00 0.00 0.00 87 1011.9
20260505025216 71 346 0.0 3.0 0.00 0.00 0.00 87 1011.9
20260505024712 71 304 0.0 3.0 0.00 0.00 0.00 86 1011.9
20260505024210 71 304 0.0 3.0 0.00 0.00 0.00 86 1011.9
20260505023706 71 98 0.0 0.0 0.00 0.00 0.00 86 1011.9
20260505023203 71 91 0.0 0.0 0.00 0.00 0.00 86 1011.9
20260505022700 71 91 0.0 2.0 0.00 0.00 0.00 86 1011.9
20260505022157 72 91 0.0 2.0 0.00 0.00 0.00 86 1011.9
20260505021653 72 91 0.0 2.0 0.00 0.00 0.00 86 1011.9
20260505021150 72 91 0.0 2.0 0.00 0.00 0.00 86 1011.9
20260505020647 72 113 0.0 1.0 0.00 0.00 0.00 86 1011.9
20260505020144 72 113 0.0 1.0 0.00 0.00 0.00 85 1011.9
20260505015601 72 113 0.0 1.0 0.00 0.00 0.00 85 1011.5
20260505015057 72 113 0.0 1.0 0.00 0.00 0.00 85 1011.5
20260505014538 72 113 0.0 1.0 0.00 0.00 0.00 85 1011.5
20260505014002 72 113 1.0 1.0 0.00 0.00 0.00 85 1011.5
20260505013500 72 113 0.0 1.0 0.00 0.00 0.00 85 1011.5
20260505012957 72 113 1.0 1.0 0.00 0.00 0.00 85 1011.9
20260505012453 72 182 0.0 1.0 0.00 0.00 0.00 85 1011.9
20260505011950 73 182 1.0 1.0 0.00 0.00 0.00 84 1011.5
20260505011446 73 219 1.0 3.0 0.00 0.00 0.00 84 1011.5
20260505010943 73 220 1.0 3.0 0.00 0.00 0.00 84 1011.5
20260505010440 73 220 1.0 3.0 0.00 0.00 0.00 84 1011.5
20260505005937 73 230 2.0 3.0 0.00 0.00 0.00 83 1011.5
20260505005434 73 145 1.0 2.0 0.00 0.00 0.00 83 1011.2
20260505004930 73 16 1.0 2.0 0.00 0.00 0.00 83 1011.5
20260505004427 74 15 1.0 2.0 0.00 0.00 0.00 83 1011.2
20260505003924 74 107 1.0 2.0 0.00 0.00 0.00 82 1011.2
20260505003422 74 107 0.0 2.0 0.00 0.00 0.00 82 1011.5
20260505002919 74 107 1.0 3.0 0.00 0.00 0.00 81 1011.5
20260505002242 75 169 1.0 3.0 0.00 0.00 0.00 81 1011.5
20260505001739 75 169 1.0 3.0 0.00 0.00 0.00 81 1011.5
20260505001235 75 163 1.0 2.0 0.00 0.00 0.00 80 1011.5
20260505000733 75 299 0.0 2.0 0.00 0.00 0.00 80 1011.5
20260505000229 75 299 0.0 3.0 0.00 0.00 0.00 80 1011.5
20260504235726 75 303 1.0 3.0 0.00 0.00 0.00 80 1011.5
20260504235222 76 165 1.0 3.0 0.00 0.00 0.00 80 1011.5
20260504234720 76 143 1.0 3.0 0.00 0.00 0.00 80 1011.5
20260504234217 76 102 1.0 3.0 0.00 0.00 0.00 80 1011.5
20260504233714 76 131 1.0 3.0 0.00 0.00 0.00 80 1011.5
20260504233211 76 133 1.0 3.0 0.00 0.00 0.00 80 1011.5
20260504232708 76 149 1.0 3.0 0.00 0.00 0.00 80 1011.9
20260504232146 76 149 1.0 3.0 0.00 0.00 0.00 80 1011.9
20260504231623 76 163 1.0 3.0 0.00 0.00 0.00 80 1011.9
20260504231121 76 163 1.0 3.0 0.00 0.00 0.00 80 1011.9
20260504230559 76 161 1.0 3.0 0.00 0.00 0.00 79 1012.2
20260504230056 76 210 2.0 3.0 0.00 0.00 0.00 79 1012.2
20260504225537 76 121 1.0 3.0 0.00 0.00 0.00 79 1012.2
20260504225016 76 77 1.0 3.0 0.00 0.00 0.00 79 1012.2
20260504224511 76 76 1.0 3.0 0.00 0.00 0.00 79 1012.2
20260504224008 76 10 1.0 3.0 0.00 0.00 0.00 79 1012.2
20260504223434 76 19 1.0 3.0 0.00 0.00 0.00 80 1012.5
20260504222901 76 90 1.0 2.0 0.00 0.00 0.00 80 1012.5
20260504222358 76 115 1.0 2.0 0.00 0.00 0.00 80 1012.5
20260504221854 76 115 1.0 2.0 0.00 0.00 0.00 79 1012.5
20260504221258 76 115 1.0 3.0 0.00 0.00 0.00 79 1012.5
20260504220755 76 115 1.0 3.0 0.00 0.00 0.00 79 1012.5
20260504220252 77 116 1.0 3.0 0.00 0.00 0.00 78 1012.5
20260504215749 77 150 1.0 3.0 0.00 0.00 0.00 78 1012.9
20260504215246 77 331 0.0 4.0 0.00 0.00 0.00 78 1012.9
20260504214743 77 253 1.0 4.0 0.00 0.00 0.00 78 1012.9
20260504214240 78 253 1.0 4.0 0.00 0.00 0.00 78 1012.9
20260504213737 78 181 2.0 4.0 0.00 0.00 0.00 78 1012.9
20260504213233 78 165 1.0 3.0 0.00 0.00 0.00 76 1012.9
20260504212659 78 248 1.0 3.0 0.00 0.00 0.00 77 1012.9
20260504212137 78 145 1.0 3.0 0.00 0.00 0.00 77 1012.9
20260504211634 78 198 2.0 4.0 0.00 0.00 0.00 77 1012.9
20260504211028 78 169 1.0 4.0 0.00 0.00 0.00 78 1013.2
20260504210525 78 169 1.0 4.0 0.00 0.00 0.00 77 1013.2
20260504205951 79 200 1.0 4.0 0.00 0.00 0.00 75 1013.2
20260504205448 79 161 1.0 2.0 0.00 0.00 0.00 77 1013.2
20260504204945 78 160 1.0 3.0 0.00 0.00 0.00 77 1013.2
20260504204411 79 159 1.0 3.0 0.00 0.00 0.00 76 1013.5
20260504203837 79 147 1.0 3.0 0.00 0.00 0.00 75 1013.5
20260504203333 79 126 1.0 3.0 0.00 0.00 0.00 73 1013.5
20260504202759 79 179 1.0 2.0 0.00 0.00 0.00 76 1013.5
20260504202225 79 200 1.0 4.0 0.00 0.00 0.00 75 1013.5
20260504201721 80 234 1.0 4.0 0.00 0.00 0.00 74 1013.5
20260504201159 80 148 1.0 4.0 0.00 0.00 0.00 73 1013.9
20260504200656 80 150 2.0 4.0 0.00 0.00 0.00 74 1013.9
20260504200153 80 73 1.0 3.0 0.00 0.00 0.00 72 1013.9
20260504195649 80 73 1.0 3.0 0.00 0.00 0.00 74 1013.9
20260504195114 80 131 1.0 3.0 0.00 0.00 0.00 72 1013.9
20260504194611 80 130 1.0 3.0 0.00 0.00 0.00 74 1013.9